Millville, NJ

4:43 AM EDT on April 28, 2017 (GMT -0400)
Millville Municipal

Weather History for KMIV - December, 2012

Change the Weather History Date:

Tuesday, December 25, 2012

  Actual Average Record
Temperature  
Mean Temperature 37 °F -  
Max Temperature 39 °F 42 °F 70 °F (2015)
Min Temperature 35 °F 24 °F 2 °F (1980)
Degree Days  
Heating Degree Days 28    
Moisture  
Dew Point 36 °F    
Average Humidity 93    
Maximum Humidity 100    
Minimum Humidity 86    
Precipitation  
Precipitation 0.00 in - - ()
Sea Level Pressure  
Sea Level Pressure 30.05 in    
Wind  
Wind Speed 5 mph (NW)    
Max Wind Speed 13 mph    
Max Gust Speed 17 mph    
Visibility 6 miles    
Events      
Averages and records for this station are not official NWS values.
T = Trace of Precipitation, MM = Missing Value Source: NWS Daily Summary

Daily Weather History Graph

Daily Weather History Graph

Search for Another Location

Airport or City:

Trip Planner

Search our weather history database for the weather conditions in past years. The results will help you decide how hot, cold, wet, or windy it might be!

Date:

Astronomy

Dec. 25, 2012 Rise Set
Actual Time 7:18 AM EST 4:42 PM EST
Civil Twilight 6:48 AM EST 5:12 PM EST
Nautical Twilight 6:14 AM EST 5:46 PM EST
Astronomical Twilight 5:41 AM EST 6:19 PM EST
Moon 2:49 PM EST (12/25) 4:49 AM EST (12/25)
Length of Visible Light 10h 24m
Length of Day
9h 24m
Waxing Gibbous, 93% of the Moon is Illuminated
Dec 25
Waxing Gibbous
Dec 28
Full
Jan 4
Last Quarter
Jan 11
New
Jan 18
First Quarter

Hourly Weather History & Observations

Time (EST) Temp. Windchill Dew Point Humidity Pressure Visibility Wind Dir Wind Speed Gust Speed Precip Events Conditions
12:15 AM 39.2 °F - 37.4 °F 93% 29.89 in 3.0 mi Calm Calm - N/A   Overcast
12:24 AM 39.2 °F - 37.4 °F 93% 29.89 in 2.5 mi Calm Calm - N/A   Overcast
12:54 AM 37.9 °F 35.5 °F 37.0 °F 97% 29.89 in 2.0 mi North 3.5 mph - N/A   Overcast
1:37 AM 39.2 °F - 37.4 °F 93% 29.88 in 3.0 mi Calm Calm - N/A   Overcast
1:54 AM 39.0 °F - 37.0 °F 93% 29.90 in 3.0 mi Calm Calm - N/A   Overcast
2:54 AM 39.0 °F - 37.0 °F 93% 29.92 in 4.0 mi Calm Calm - N/A   Overcast
3:04 AM 37.4 °F 34.9 °F 37.4 °F 100% 29.92 in 3.0 mi West 3.5 mph - N/A   Overcast
3:26 AM 37.4 °F 34.9 °F 37.4 °F 100% 29.92 in 3.0 mi West 3.5 mph - N/A   Overcast
3:47 AM 37.4 °F 32.1 °F 37.4 °F 100% 29.93 in 3.0 mi West 6.9 mph - N/A   Overcast
3:54 AM 37.9 °F 33.5 °F 37.0 °F 97% 29.93 in 3.0 mi West 5.8 mph - N/A   Overcast
4:30 AM 39.2 °F 32.5 °F 37.4 °F 93% 29.94 in 5.0 mi West 10.4 mph - N/A   Overcast
4:54 AM 37.9 °F 32.1 °F 37.0 °F 97% 29.95 in 5.0 mi West 8.1 mph - N/A   Overcast
5:54 AM 37.9 °F 30.9 °F 36.0 °F 93% 29.99 in 7.0 mi WNW 10.4 mph - N/A   Overcast
6:14 AM 37.4 °F 32.8 °F 35.6 °F 93% 29.99 in 7.0 mi WNW 5.8 mph - N/A   Overcast
6:28 AM 37.4 °F 32.1 °F 35.6 °F 93% 29.99 in 7.0 mi WNW 6.9 mph - N/A   Mostly Cloudy
6:42 AM 37.4 °F 32.8 °F 33.8 °F 87% 30.00 in 7.0 mi WNW 5.8 mph - N/A   Scattered Clouds
6:54 AM 36.0 °F 32.1 °F 34.0 °F 93% 30.01 in 7.0 mi WNW 4.6 mph - N/A   Clear
7:22 AM 35.6 °F 29.2 °F 33.8 °F 93% 30.02 in 5.0 mi WNW 8.1 mph - N/A   Scattered Clouds
7:32 AM 35.6 °F 27.1 °F 33.8 °F 93% 30.02 in 4.0 mi WNW 12.7 mph - N/A   Mostly Cloudy
7:54 AM 36.0 °F 29.6 °F 33.1 °F 89% 30.03 in 4.0 mi NW 8.1 mph - N/A   Scattered Clouds
8:54 AM 37.0 °F 30.4 °F 34.0 °F 89% 30.07 in 5.0 mi West 9.2 mph - N/A   Clear
9:21 AM 37.4 °F 30.8 °F 33.8 °F 87% 30.08 in 4.0 mi WNW 9.2 mph - N/A   Partly Cloudy
9:39 AM 37.4 °F 29.8 °F 33.8 °F 87% 30.09 in 4.0 mi NW 11.5 mph - N/A   Mostly Cloudy
9:54 AM 37.9 °F 30.9 °F 34.0 °F 86% 30.10 in 4.0 mi WNW 10.4 mph - N/A   Overcast
10:54 AM - - - N/A% 30.11 in 7.0 mi NW 5.8 mph - N/A   Overcast
11:54 AM - - - N/A% 30.08 in 8.0 mi NW 9.2 mph - N/A   Overcast
12:44 PM - - - N/A% 30.11 in 8.0 mi NNW 10.4 mph - N/A   Scattered Clouds
12:54 PM - - - N/A% 30.11 in 8.0 mi NNW 10.4 mph - N/A   Scattered Clouds
1:18 PM - - - N/A% 30.11 in 8.0 mi NNW 9.2 mph 17.3 mph N/A   Mostly Cloudy
1:54 PM - - - N/A% 30.10 in 8.0 mi North 10.4 mph - N/A   Overcast
2:54 PM - - - N/A% 30.11 in 8.0 mi NNW 10.4 mph - N/A   Mostly Cloudy
3:54 PM - - - N/A% 30.14 in 8.0 mi NNW 8.1 mph - N/A   Overcast
4:12 PM - - - N/A% 30.14 in 8.0 mi NNW 6.9 mph - N/A   Scattered Clouds
4:54 PM - - - N/A% 30.16 in 8.0 mi WNW 4.6 mph - N/A   Clear
5:54 PM - - - N/A% 30.16 in 7.0 mi WNW 4.6 mph - N/A   Clear
6:54 PM - - - N/A% 30.19 in 5.0 mi West 3.5 mph - N/A   Haze
7:54 PM - - - N/A% 30.20 in 8.0 mi Calm Calm - N/A   Clear
8:54 PM - - - N/A% 30.22 in 8.0 mi North 3.5 mph - N/A   Partly Cloudy
9:54 PM - - - N/A% 30.24 in 9.0 mi Calm Calm - N/A   Clear
10:33 PM - - - N/A% 30.25 in 10.0 mi NNW 3.5 mph - N/A   Mostly Cloudy
10:54 PM - - - N/A% 30.25 in 10.0 mi North 3.5 mph - N/A   Overcast
11:54 PM - - - N/A% 30.25 in 10.0 mi North 5.8 mph - N/A   Overcast